Hourly Data Report for January 02, 2021

BANCROFT AUTO
ONTARIO
Current Station Operator: ECCC - MSC

45°04'17.000" N
77°52'44.000" W
330.70 m
616I001
71294
WRK

Download Data

Hourly Data (January 2021)
Hourly Data Report for January 2, 2021
TIME
LST
Temp Definition
°C
Dew Point Definition
°C
Rel Hum Definition
%
Precip. Amount Definition
mm

Wind Dir Definition
10's deg

Wind Spd Definition
km/h
Visibility Definition
km
Stn Press Definition
kPa
Hmdx Definition


Wind Chill Definition


Weather Definition


00:00 -3.6 -5.0 90 1.1 5 6   97.26   -6 LegendNANA
01:00 -3.7 -5.1 90 0.3 6 5   97.09   -6 LegendNANA
02:00 -3.9 -5.1 91 0.3 1 6   97.01   -7 LegendNANA
03:00 -4.1 -5.2 92 0.3 1 6   96.88   -7 LegendNANA
04:00 -4.2 -5.4 92 1.0 1 5   96.78   -6 LegendNANA
05:00 -4.2 -5.5 91 0.9 33 7   96.85   -7 LegendNANA
06:00 -4.3 -5.9 89 0.1 35 7   96.92   -7 LegendNANA
07:00 -5.0 -6.8 87 0.1 34 9   96.94   -9 LegendNANA
08:00 -4.8 -6.4 88 0.0 36 7   97.10   -8 LegendNANA
09:00 -4.8 -6.6 87 0.0 33 8   97.25   -8 LegendNANA
10:00 -3.9 -6.5 82 0.0 33 10   97.34   -8 LegendNANA
11:00 -2.6 -6.4 75 0.0 33 7   97.35   -5 LegendNANA
12:00 -2.0 -5.2 79 0.0 32 12   97.43   -6 LegendNANA
13:00 -2.3 -5.2 80 0.0 32 10   97.53   -6 LegendNANA
14:00 -2.4 -5.4 80 0.0 33 9   97.60   -6 LegendNANA
15:00 -2.7 -5.8 79 0.0 32 8   97.70   -6 LegendNANA
16:00 -3.0 -6.2 78 0.0 32 9   97.76   -7 LegendNANA
17:00 -4.4 -6.3 86 0.0 31 2   97.83   -5 LegendNANA
18:00 -5.9 -7.0 92 0.0 18 1   97.86   -6 LegendNANA
19:00 -8.1 -8.9 94 0.0   0   97.86     LegendNANA
20:00 -9.9 -11.2 91 0.0   0   97.95     LegendNANA
21:00 -10.4 -11.5 91 0.0   0   97.98     LegendNANA
22:00 -8.7 -9.9 91 0.0   0   97.97     LegendNANA
23:00 -7.7 -8.8 92 0.0   0   97.93     LegendNANA

Notes on Data Quality.

Legend

  • E = Estimated
  • M = Missing
  • NA = Not Available*
  • [empty] = Indicates an unobserved value
Date modified: